Zurück zum Katalog

DMSP 5D-2 F13 DEB

AktivSSO
NORAD 40442·DEBRIS·🇺🇸 United States

Gestartet Mar 24, 1995 von Vandenberg Space Force Base

Loading…

Nächste Überflüge (nächste 24 Stunden)

TLE

AktuellSource: Space-Track

Epoche: Sep 14, 2026, 18:48 UTC

1 40442U 95015AU  26257.78342043  .00000047  00000-0  47035-4 0  9991
2 40442  98.8543 270.5338 0010978   5.8010 354.3288 14.15022960595619

Verfolge DMSP 5D-2 F13 DEB in Echtzeit mit AllMySat

Download on the App Store